Regional Weather Roundup
Issued by NWS Bismarck, ND

Home | Current Version | Previous Version | Text Only | Print | Product List | Glossary On
Versions: 1 2 3 4 5 6 7 8 9 10 11 12 13 14 15 16 17 18 19 20 21 22 23 24 25 26 27 28 29 30 31 32 33 34 35 36 37 38 39 40 41 42 43 44 45 46 47 48 49 50
000
ASUS43 KBIS 311910
RWRBIS

NWR BROADCAST TEXT
NATIONAL WEATHER SERVICE BISMARCK ND
200 PM CDT FRI JUL 31 2015

NOTE: "FAIR" INDICATES FEW OR NO CLOUDS BELOW 12,000 FEET WITH NO
SIGNIFICANT WEATHER AND/OR OBSTRUCTIONS TO VISIBILITY.


CITY           SKY/WX    TMP DP  RH WIND       PRES   REMARKS
WILLISTON      SUNNY     85  47  26 VRB6      30.13F
MINOT          SUNNY     81  50  33 NW10G21   30.10S
MINOT AFB      SUNNY     83  50  32 NW13      30.09F
BISMARCK       SUNNY     88  52  29 NW9G20    30.10F
DICKINSON      SUNNY     86  41  20 N7        30.14F
GARRISON         N/A     80  56  43 NW12      30.11F
HETTINGER ARPT SUNNY     88  39  17 NW6       30.18F
JAMESTOWN      SUNNY     80  52  37 W9        30.09F
BEACH          FAIR      86  39  19 NE5       30.17F
CROSBY         FAIR      77  48  36 NW7       30.14F
HARVEY         FAIR      81  52  36 W14       30.09F
HAZEN          FAIR      84  48  28 NW13G21   30.12F
LINTON         FAIR      88  52  29 W14G24    30.11F
MANDAN         FAIR      84  50  30 NW12G20   30.12F
OAKES            N/A     82  55  39 W7        30.11S
STANLEY        FAIR      79  52  38 N12       30.14F
$$

CITY           SKY/WX    TMP DP  RH WIND       PRES   REMARKS
GRAND FORKS    MOSUNNY   80  49  33 NW15G30   30.03F
GRAND FORKS AF SUNNY     80  50  36 NW16G22   30.04F
DEVILS LAKE    SUNNY     79  52  38 W14G21    30.07F
FARGO          SUNNY     82  51  34 NW16      30.06F
CAVALIER       FAIR      77  50  38 NW18G26   30.02F
GRAFTON        FAIR      79  52  38 W18       30.03F
GWINNER        FAIR      81  54  39 W9        30.10F
LANGDON        FAIR      79  50  36 NW16      30.07F
ROLLA            N/A     73  52  46 NW14G22   30.11S
WALHALLA       FAIR      77  50  38 MISG      30.02F
$$

CITY           SKY/WX    TMP DP  RH WIND       PRES   REMARKS
ABERDEEN       SUNNY     83  54  36 S9        30.11F
MOBRIDGE       SUNNY     89  54  30 W9        30.10F
BUFFALO          N/A     88  39  17 SE7       30.13F
RAPID CITY     SUNNY     84  53  34 NE7       30.21F
GLASGOW        SUNNY     88  41  19 S10       30.10F
SIDNEY         SUNNY    N/A N/A N/A E6        30.11F
WOLF POINT     SUNNY     89  43  20 SE3       30.10F
GLENDIVE       SUNNY     88  43  20 E6        30.14F
MILES CITY     SUNNY     92  42  17 SE7G16    30.11F
BAKER          SUNNY     89  39  17 S7        30.18F
$$

CITY           SKY/WX    TMP DP  RH WIND       PRES   REMARKS
BILLINGS       MOSUNNY   86  43  22 S7        30.18F
GREAT FALLS    SUNNY     87  33  14 MISG      30.18F
REGINA         MOSUNNY   77  46  33 SW2       30.13F
$$



USA.gov is the U.S. government's official web portal to all federal, state and local government web resources and services.